sat.trackr.live / text

‹ back to catalog

STARLINK-35568

NORAD 66473 · 2025-262T

PAYLOAD ACTIVE UNKNOWN

§ Identity

Operator
Country
US
Launch date
2025-11-15
Launch site
AFETR
Launch vehicle
Mass (kg)
RCS (m²)

Purposes: comms

External: N2YO · Heavens-Above · Gunter

§ Orbital elements

Epoch: 2026-09-20T08:33:13.063680Z

Period
94.27 min
Inclination
43.0029°
Eccentricity
0.0001519
Mean motion
15.27593284 rev/d
Perigee alt
482.0 km
Apogee alt
484.1 km
Semi-major
6,861.1 km
B*
4.0888e-4
RAAN
277.1820°
Arg perigee
268.7508°
Mean anomaly
91.3170°
Rev number
4,867

§ Raw data

STARLINK-355681 66473U 25262T   26263.35640120  .00011011  00000+0  40888-3 0  99972 66473  43.0029 277.1820 0001519 268.7508  91.3170 15.27593284 48677

JSON: /api/v1/satellites/66473 · /tle

For live sub-satellite position, see the globe view (requires WebGL).

§ Visibility from observer

Set your observer location to see the next 7 days of passes ≥ 10°. The values pass through the URL so the page stays shareable.

No JS? Fill the form by hand. The geolocation button needs JavaScript.